Regional Weather Roundup
Issued by NWS Charleston, SC

Current Version | Previous Version | Text Only | Print | Product List | Glossary Off
Versions: 1 2 3 4 5 6 7 8 9 10 11 12 13 14 15 16 17 18 19 20 21 22 23 24 25 26 27 28 29 30 31 32 33 34 35 36 37 38 39 40 41 42 43 44 45 46 47 48 49 50
731 ASUS42 KCHS 202112 RWRCHS REGIONAL WEATHER ROUNDUP NATIONAL WEATHER SERVICE CHARLESTON SC 500 PM EDT FRI OCT 20 2017 NOTE: "FAIR" INDICATES FEW OR NO CLOUDS BELOW 12,000 FEET WITH NO SIGNIFICANT WEATHER AND/OR OBSTRUCTIONS TO VISIBILITY. NOT ALL STATIONS ARE QUALITY CONTROLLED. USE DATA WITH CAUTION... ESPECIALLY DEWPOINT OBSERVATIONS. SCZ027-030-031-034>040-042>050-202200- ...SOUTHEAST SOUTH CAROLINA... CITY SKY/WX TMP DP RH WIND PRES REMARKS N CHARLESTON SUNNY 79 54 41 NE7 30.17S WATERFRONT PRK N/A 75 62 64 SE8 30.02S JOHNS ISLAND FAIR 75 61 60 SE6 30.18S PINOPOLIS N/A 79 55 44 CALM 30.12F MONCKS CORNER FAIR 75 52 43 CALM 30.18S SUMMERVILLE FAIR 79 50 36 CALM 30.19S BEAUFORT MCAS MOSUNNY 81 60 48 NE9 30.18S BEAUFORT ARPT FAIR 79 59 50 E3 30.17F HAZE HILTON HEAD IS SUNNY 75 63 64 NE5 N/A WALTERBORO CLEAR 79 45 29 CALM 30.19S ALLENDALE N/A 81 39 22 VRB5 N/A ...SOUTHERN MIDLANDS AND PEE DEE... CITY SKY/WX TMP DP RH WIND PRES REMARKS GEORGETOWN FAIR 73 57 56 SE7 30.19S KINGSTREE FAIR 79 45 29 CALM 30.18S ORANGEBURG SUNNY 81 40 23 NE3 30.18F BARNWELL N/A 82 43 24 E6 30.18F AIKEN FAIR 79 41 25 CALM 30.22F MANNING HAZE 79 46 31 MISG 30.18F VSB<1/4 COLUMBIA SUNNY 80 47 31 CALM 30.17F SUMTER SUNNY 81 42 25 SE5 30.16S FLORENCE SUNNY 80 46 30 N5 30.18F MYRTLE BEACH SUNNY 75 55 49 S7 30.19S N MYRTLE BEACH SUNNY 75 54 47 S8 30.17F $$ GAZ063-065-086>088-099>101-113>116-118-119-134>141-150-202200- ...SOUTHEAST GEORGIA... CITY SKY/WX TMP DP RH WIND PRES REMARKS SAVANNAH ARPT MOSUNNY 80 59 48 E6 30.18S HUNTER AAF SUNNY 78 62 57 E8 30.16S FORT STEWART MOSUNNY 81 61 50 E9 30.15F STATESBORO SUNNY 82 41 23 S5 30.18F SYLVANIA CLEAR 81 50 34 CALM 30.19F CLAXTON FAIR 82 56 41 NE5 30.18S ...CSRA...CENTRAL AND FAR SOUTHEAST GEORGIA... CITY SKY/WX TMP DP RH WIND PRES REMARKS THOMSON SUNNY 79 39 23 SE5 30.23F AUGUSTA-BUSH SUNNY 82 42 24 NE6 30.17F AUGUSTA-DANIEL SUNNY 81 42 25 E7 30.19F SWAINSBORO FAIR 81 43 26 SE5 30.19S VIDALIA SUNNY 82 50 32 E6 30.18S EASTMAN FAIR 83 -1 4 E5 30.19F HAZLEHURST FAIR 83 33 16 E7 30.15F ALMA SUNNY 82 58 43 E5 30.15F WAYCROSS MOSUNNY 82 57 41 SE9 30.15S JESUP NOT AVBL BAXLEY FAIR 81 54 39 CALM 30.16F BRUNSWICK SUNNY 77 64 65 NE14 30.18F SAINT SIMONS SUNNY 78 68 71 NE13G22 30.17S $$ SCZ027-028-034-036>038-045-046-048>050-GAZ119-141-202200- ...LAKE AND SUPPLEMENTAL COASTAL OBSERVATIONS... STATION/POSITION TIME TEMP WIND PRES WAVE SWELL AIR SEA DIR/SP/G HT/PER HT/PER/DIR (UTC) (F) (DEG/KT/KT) (MB) (FT/S) (FT/S/D) WINYAH BAY NOT AVBL LAKE MURRAY 2020 76 220/ 6/ 6 1021.7 ACE BASIN NERRS 1945 81 200/ 1 1022.0 FORT PULASKI 2036 73 74 110/ 10/ 13 1022.7S SAPELO ISLAND NOT AVBL $$ ANZ835-935-AMZ111-154-330-350-352-354-370-450-454-472-202200- ...C-MAN AND BUOY OBSERVATIONS... STATION/POSITION TIME TEMP WIND PRES WAVE SWELL AIR SEA DIR/SP/G HT/PER HT/PER/DIR (UTC) (F) (DEG/KT/KT) (MB) (FT/S) (FT/S/D) BUOY 41004 2050 74 80 30/ 6/ 8 1021.6F 3/ 9 3/110/ 9 BUOY 41008 1950 75 77 60/ 17/ 19 1021.3 5/ 6 2/110/ 8 FOLLY BEACH CMAN 2000 73 100/ 9/ 10 1022.7F CAPERS NEARSHORE 2008 72 73 110/ 8/ 14 1021.8F FRIPP NEARSHORE 2008 76 90/ 10/ 12 N/A STATION/POSITION TIME TEMP WIND PRES WAVE SWELL AIR SEA DIR/SP/G HT/PER HT/PER/DIR (UTC) (F) (DEG/KT/KT) (MB) (FT/S) (FT/S/D) 5E ST. MARYS GA 2030 77 N/A 5/ 5 FRYING PAN BUOY 2050 73 76 40/ 4/ 4 1022.0F 3/ 9 3/110/ 9 BUOY 41025 2050 73 81 350/ 6/ 10 1021.9F 3/ 9 3/140/ 9 CAPE LOOKOUT NC 2000 73 220/ 4/ 5 1021.7F BUOY 41002 1950 77 80 40/ 12/ 14 1020.5 5/ 8 5/ 60/ 8 BUOY 41010 NOT AVBL ST AUGUSTINE FL 2100 79 79 70/ 15/ 16 1020.4F $$

USA.gov is the U.S. government's official web portal to all federal, state and local government web resources and services.